This is the latest recevied weather packets stored in our database for station/object K4AVM-13. If no packets are shown the sender has not sent any weather packets the latest 10 day(s).
| Time | Temp. | Humidity | Pressure | Rain* | Wind** | Luminosity | Snow |
|---|---|---|---|---|---|---|---|
| 1778144782 | 15° C | 93% | 1012.5 hPa | 1.78 mm | - | 0 W/m² | - |
| 1778144480 | 15° C | 92% | 1012.2 hPa | 0 mm | - | 0 W/m² | - |
| 1778144177 | 15° C | 92% | 1012.4 hPa | 0 mm | - | 0 W/m² | - |
| 1778143873 | 15° C | 92% | 1012 hPa | 0 mm | - | 0 W/m² | - |
| 1778143570 | 15° C | 92% | 1012 hPa | 0 mm | - | 0 W/m² | - |
| 1778143267 | 15.56° C | 92% | 1011.8 hPa | 0 mm | - | 0 W/m² | - |
| 1778142964 | 15.56° C | 92% | 1011.8 hPa | 0 mm | - | 0 W/m² | - |
| 1778142661 | 15.56° C | 91% | 1011.4 hPa | 0 mm | - | 0 W/m² | - |
| 1778142356 | 16.11° C | 91% | 1011.7 hPa | 0 mm | - | 0 W/m² | - |
| 1778142053 | 16.67° C | 92% | 1011.8 hPa | 0 mm | - | 0 W/m² | - |
| 1778141749 | 17.22° C | 93% | 1011.6 hPa | 0 mm | - | 0 W/m² | - |
| 1778141446 | 17.78° C | 93% | 1011.4 hPa | 0 mm | - | 0 W/m² | - |
| 1778141142 | 18.89° C | 94% | 1011 hPa | 0 mm | - | 0 W/m² | - |
| 1778140839 | 18.89° C | 93% | 1011 hPa | 0 mm | - | 0 W/m² | - |
| 1778140534 | 19.44° C | 92% | 1010.9 hPa | 0 mm | - | 0 W/m² | - |
| 1778140231 | 19.44° C | 92% | 1010.5 hPa | 0 mm | - | 0 W/m² | - |
| 1778139927 | 19.44° C | 92% | 1010.9 hPa | 0 mm | - | 0 W/m² | - |
| 1778139626 | 19.44° C | 91% | 1010.9 hPa | 0 mm | - | 0 W/m² | - |
| 1778139322 | 19.44° C | 91% | 1010.9 hPa | 0 mm | - | 0 W/m² | - |
| 1778139018 | 19.44° C | 91% | 1010.8 hPa | 0 mm | - | 0 W/m² | - |
| 1778138716 | 19.44° C | 90% | 1011 hPa | 0 mm | - | 0 W/m² | - |
| 1778138413 | 20° C | 90% | 1010.9 hPa | 0 mm | - | 0 W/m² | - |
| 1778138110 | 19.44° C | 90% | 1011.1 hPa | 0 mm | - | 0 W/m² | - |
| 1778137807 | 20° C | 90% | 1011.1 hPa | 0 mm | - | 0 W/m² | - |
| 1778137504 | 20° C | 90% | 1010.8 hPa | 0 mm | - | 0 W/m² | - |
* Rain latest hour (hover to see other rain measurements)
** Current wind speed in m/s (hover to see current wind gust speed)